Wind_Speed
19 18 15 18 19 22 20 19 14 10 14 16 15 21 22 27 28 27 30 29 33 33 34 37 40 41 43 47 47 47 47 42 41 41 40 41 42 42
20 19 19 18 21 22 23 22 20 18 11 28 26 25 25 25 30 32 31 32 28 30 36 39 45 48 48 49 48 46 44 44 43 43 42 44 44 46
21 20 19 19 21 25 24 22 21 20 13 33 30 28 31 30 30 30 28 22 29 33 38 44 44 40 41 40 41 41 42 43 44 45 46 44 45 45
23 22 20 20 21 23 24 24 24 25 22 15 34 34 31 31 31 30 27 26 29 32 37 38 37 38 36 36 36 37 38 39 37 36 35 38 41 41
22 22 23 21 23 25 27 27 25 20 24 25 29 34 31 30 32 26 31 29 28 32 35 33 31 33 36 41 41 41 38 39 39 38 37 38 39 41
23 23 23 23 25 27 25 25 23 26 27 27 28 24 32 27 25 26 31 29 30 31 30 28 37 38 35 35 38 39 40 40 39 38 38 38 40 42
21 21 22 22 23 25 27 27 30 28 27 21 25 22 21 24 24 27 28 31 27 28 32 34 29 31 34 35 36 36 35 36 37 37 38 39 39 40
26 24 23 22 22 25 29 31 31 33 30 26 18 20 27 27 29 28 26 23 14 29 22 33 32 32 32 32 34 35 37 38 38 39 39 40 41 39
24 25 25 24 27 32 32 32 31 24 26 29 29 27 28 29 28 29 27 24 25 34 28 28 31 32 33 34 36 37 38 38 39 38 38 39 39 40
24 25 26 29 31 30 31 22 29 26 28 30 28 30 29 33 34 30 29 30 29 30 25 13 29 31 34 35 37 38 37 34 34 35 37 38 37 37
27 25 24 26 29 31 29 29 27 28 30 27 27 31 34 31 30 29 22 21 14 24 27 25 28 29 32 36 36 32 31 33 37 38 38 39 38 39
22 21 21 25 30 29 32 28 24 30 28 25 29 30 29 29 27 26 26 19 16 14 21 20 26 23 10 30 24 33 32 33 35 35 36 36 36 35
23 22 23 24 31 32 30 25 27 31 26 28 26 28 27 26 27 27 28 27 25 22 32 29 24 26 16 14 28 29 31 31 32 33 34 33 34 34
23 26 24 29 31 28 26 25 28 27 26 24 25 25 26 28 30 32 33 33 32 33 39 36 25 25 20 12 14 28 32 33 29 31 30 31 33 34
23 27 25 27 25 24 24 25 25 24 23 22 23 26 28 31 33 31 30 29 29 31 31 33 30 29 24 16 12 24 22 23 29 26 28 28 26 25
25 21 24 22 23 23 23 23 22 22 24 23 24 28 29 28 29 28 27 29 25 28 27 25 25 26 24 24 21 20 26 7 27 31 27 24 20 16
27 22 20 21 23 23 24 23 24 24 24 24 25 27 28 28 28 28 25 26 19 20 25 26 28 28 26 25 12 18 21 24 23 23 20 17 15 20
20 18 19 20 21 22 23 26 26 26 25 27 27 26 26 26 27 27 24 21 18 21 21 23 25 24 18 9 11 18 21 17 24 23 21 10 12 26
16 18 19 21 23 24 24 24 25 27 27 25 26 26 25 26 26 25 23 21 20 19 20 22 19 11 8 7 9 19 21 21 23 21 23 20 11 23
17 19 21 23 24 25 25 25 27 28 27 26 26 26 25 23 24 22 21 19 17 17 17 20 18 16 5 4 4 16 32 27 22 22 22 15 22 24
20 21 22 24 25 26 27 27 26 26 27 27 26 25 25 23 23 22 21 23 21 14 8 14 22 21 18 12 7 8 25 31 33 28 29 18 10 23
21 23 25 26 27 28 28 28 28 28 27 26 26 26 25 24 22 22 21 18 16 14 14 19 22 20 14 7 5 7 17 24 29 37 43 40 21 11
24 25 27 29 29 29 28 28 28 29 27 27 27 27 25 24 24 22 20 17 16 14 14 12 18 14 14 9 11 9 16 18 19 22 31 41 42 42
Wind_Direction
335 333 323 325 328 328 318 304 291 306 307 313 309 307 300 298 296 296 294 290 294 292 294 296 294 292 291 288 286 283 279 277 276 276 273 271 267 267
333 325 319 320 325 327 318 308 288 280 290 304 306 305 303 301 298 297 293 293 289 293 295 293 292 289 287 285 284 281 280 276 276 274 273 271 271 268
329 322 314 317 322 326 323 310 291 281 281 298 301 307 305 299 298 297 290 288 294 292 294 294 293 289 286 286 285 284 280 278 277 275 272 271 267 266
327 320 312 312 313 323 322 309 296 291 281 288 301 305 301 301 298 295 296 292 290 291 295 295 293 291 292 292 290 288 281 281 280 280 277 270 267 266
328 322 312 303 309 320 317 307 296 291 296 294 292 295 297 299 302 304 303 298 295 295 298 295 292 292 293 291 288 286 285 287 285 282 277 273 271 269
330 327 315 309 314 315 311 303 306 303 300 294 288 296 298 306 298 300 303 303 298 296 293 292 293 292 290 290 289 288 286 284 281 278 275 271 269 265
336 334 330 321 313 312 310 313 307 302 298 296 298 300 311 311 303 303 297 299 297 299 295 295 294 290 287 286 284 284 284 280 276 274 271 269 264 262
335 336 334 327 318 314 312 305 304 304 305 302 316 307 302 300 298 297 297 305 299 301 292 297 296 291 289 286 285 286 285 284 281 276 273 271 270 267
335 332 327 319 315 316 310 301 297 313 317 309 302 295 295 296 299 301 297 291 292 298 301 293 296 290 290 288 288 287 286 285 282 278 275 271 268 267
329 324 320 318 318 312 312 332 321 319 311 307 301 298 299 304 303 301 300 295 293 294 295 286 294 287 290 287 288 288 289 288 284 280 277 274 270 266
321 319 312 311 316 319 327 324 319 314 313 310 307 306 305 306 307 307 305 304 298 299 302 291 292 291 293 289 285 287 288 289 289 285 281 277 272 268
315 314 314 320 321 324 326 324 323 311 312 322 319 317 311 306 309 307 302 294 296 299 303 299 296 300 299 291 295 295 288 286 288 284 283 275 270 269
321 323 322 322 325 324 322 325 310 320 327 322 315 311 311 311 310 307 301 293 293 290 297 301 298 296 287 302 300 300 294 289 287 283 282 274 267 261
322 324 320 324 325 324 324 321 323 326 322 316 313 314 315 313 312 309 305 301 294 287 297 296 285 291 294 296 297 305 304 297 287 282 279 276 271 262
325 320 324 324 326 326 325 325 325 321 317 314 316 313 311 309 309 309 308 308 305 301 301 301 291 291 288 285 288 295 304 306 297 286 289 283 272 257
325 328 328 327 326 324 323 322 321 322 320 318 313 311 312 314 313 315 313 315 314 314 318 317 311 304 295 287 287 289 295 295 300 301 299 301 316 312
330 333 328 327 326 325 323 323 324 324 322 318 315 312 311 314 314 318 314 316 314 314 318 324 328 325 308 288 289 293 307 307 309 319 324 317 324 339
333 327 323 324 322 321 321 321 321 321 317 315 313 310 308 312 316 318 319 318 316 317 318 325 328 336 341 326 291 292 321 327 335 339 342 330 332 345
328 323 321 321 318 317 316 315 314 315 314 311 308 307 311 311 316 315 317 318 318 321 325 324 325 331 332 331 296 3 347 352 352 352 346 343 338 343
327 323 319 318 316 314 314 314 314 315 315 312 312 311 310 311 313 314 316 316 318 329 325 332 337 334 329 305 311 314 4 4 6 6 352 349 13 19
324 321 318 315 312 312 313 312 311 310 311 310 308 309 310 312 310 311 312 320 331 325 324 331 333 340 355 352 344 343 356 22 26 24 15 9 10 29
320 318 317 313 311 312 312 312 311 312 311 310 308 308 309 310 306 309 312 312 320 318 314 329 352 3 0 350 349 344 354 3 25 37 40 37 35 38
318 317 313 311 311 311 312 311 309 306 306 305 305 307 309 308 310 308 306 316 322 325 341 333 351 3 358 356 6 349 359 1 360 14 30 43 42 47
Height
772 770 767 765 762 760 757 755 750 734 720 718 718 717 713 710 706 704 700 696 692 687 682 678 673 668 663 658 653 650 645 643 640 638 637 635 634 633
768 766 763 760 757 754 751 748 746 740 725 717 712 710 707 704 700 696 692 688 684 681 677 671 665 659 653 647 642 638 634 631 629 627 625 624 622 621
765 761 758 755 751 748 745 742 738 735 727 708 708 704 699 694 690 686 683 679 677 672 667 660 654 647 640 635 632 628 624 621 617 615 612 612 610 609
760 757 753 749 746 742 739 735 732 728 723 713 702 697 693 688 682 676 673 670 667 662 655 649 643 636 631 627 622 618 614 610 607 605 603 602 599 597
756 752 748 745 741 737 733 729 725 721 717 710 699 692 686 681 675 670 665 659 656 652 645 640 634 629 624 618 613 608 604 600 598 595 592 590 588 586
753 749 744 741 737 732 728 723 719 715 709 702 693 687 681 675 671 664 654 652 645 641 636 631 627 620 615 610 603 599 595 591 587 584 581 579 577 575
749 745 740 737 733 729 724 718 714 708 702 694 687 680 677 670 665 657 651 643 638 633 627 620 615 610 605 600 595 590 585 580 576 573 570 568 565 564
743 739 735 732 728 724 720 714 709 702 695 690 684 678 670 666 660 653 646 639 625 627 619 611 608 599 594 589 584 579 573 568 564 561 558 556 553 552
740 735 731 728 724 718 711 706 701 698 694 688 681 674 667 661 655 647 641 634 624 616 614 602 599 590 584 578 573 567 562 556 552 549 546 543 541 539
738 733 728 723 719 713 706 700 696 691 687 681 676 668 662 656 650 642 635 627 618 611 609 597 591 582 575 568 562 556 550 546 541 537 532 529 527 526
733 729 725 720 715 707 702 696 690 684 679 674 669 663 656 650 644 636 629 623 610 603 601 594 582 574 567 556 549 544 540 535 530 525 520 516 515 513
727 723 720 716 709 704 698 692 686 679 673 667 661 655 650 643 638 634 626 619 610 597 594 590 578 572 555 548 541 536 529 523 519 514 508 504 501 500
723 719 715 711 705 700 695 690 684 676 669 664 658 651 644 638 633 627 621 615 605 596 589 584 573 566 561 543 531 527 522 512 506 500 494 490 487 485
721 716 711 707 701 696 692 686 680 674 668 662 655 648 641 634 627 620 614 607 600 592 582 576 568 562 553 542 531 516 511 503 497 488 482 476 472 468
720 714 709 704 699 693 688 683 678 672 667 660 653 646 639 631 623 615 607 601 593 584 576 569 563 555 549 540 529 517 508 493 489 481 473 465 458 453
717 711 707 702 697 692 685 680 675 671 665 658 651 643 635 627 619 612 604 595 587 576 570 564 557 551 542 533 526 514 505 499 483 474 466 457 450 444
713 708 704 699 693 688 683 678 672 667 661 655 649 640 632 624 616 609 602 593 587 577 566 558 552 545 536 528 521 512 503 492 481 472 463 454 447 440
712 708 703 698 693 688 681 674 669 664 658 652 645 638 630 622 614 605 600 593 585 576 568 560 552 543 533 524 519 512 502 491 481 472 464 455 446 436
712 707 702 697 692 686 679 673 667 661 655 649 642 634 627 620 612 604 597 592 584 577 570 562 555 550 542 533 522 515 507 495 486 476 466 460 451 440
711 706 701 696 689 683 677 671 664 657 651 644 638 631 624 618 610 603 597 591 583 577 570 563 557 551 546 541 534 520 512 504 494 484 472 464 458 448
709 704 699 693 687 680 674 667 661 654 648 641 634 628 622 616 608 602 596 590 584 579 573 566 560 553 546 540 535 527 519 511 505 495 485 473 464 455
707 702 696 690 684 677 670 663 656 649 643 637 631 625 619 613 607 601 595 589 584 580 575 568 562 555 549 547 543 536 528 520 513 506 497 491 484 477
705 699 693 686 679 673 666 660 654 646 640 634 627 621 616 610 604 599 593 589 584 579 575 569 564 560 555 552 548 543 536 530 523 516 510 505 499 493